TimeEDT,TemperatureF,Dew PointF,Humidity,Sea Level PressureIn,VisibilityMPH,Wind Direction,Wind SpeedMPH,Gust SpeedMPH,PrecipitationIn,Events,Conditions,WindDirDegrees,DateUTC
12:54 AM,57.0,51.1,81,29.91,10.0,West,6.9,-,N/A,,Mostly Cloudy,270,2013-08-05 04:54:00
1:54 AM,55.9,52.0,87,29.91,10.0,West,3.5,-,N/A,,Overcast,280,2013-08-05 05:54:00
2:54 AM,57.0,51.1,81,29.91,10.0,West,4.6,-,N/A,,Overcast,280,2013-08-05 06:54:00
3:54 AM,55.9,52.0,87,29.92,10.0,West,5.8,-,N/A,,Overcast,280,2013-08-05 07:54:00
4:23 AM,55.4,51.8,88,29.98,10.0,West,6.9,-,N/A,,Mostly Cloudy,280,2013-08-05 08:23:00
4:45 AM,53.6,51.8,94,29.98,10.0,WNW,5.8,-,N/A,,Partly Cloudy,290,2013-08-05 08:45:00
4:54 AM,54.0,51.1,90,29.94,10.0,West,5.8,-,N/A,,Partly Cloudy,280,2013-08-05 08:54:00
5:54 AM,52.0,50.0,93,29.96,10.0,West,6.9,-,N/A,,Clear,270,2013-08-05 09:54:00
6:54 AM,53.1,48.9,86,29.98,10.0,WNW,8.1,-,N/A,,Clear,290,2013-08-05 10:54:00
7:54 AM,55.9,48.0,75,29.99,10.0,NW,6.9,-,N/A,,Clear,310,2013-08-05 11:54:00
8:54 AM,59.0,46.0,62,30.00,10.0,NW,9.2,-,N/A,,Clear,310,2013-08-05 12:54:00
9:54 AM,62.1,44.1,52,30.00,10.0,WNW,10.4,23.0,N/A,,Clear,300,2013-08-05 13:54:00
10:54 AM,64.9,42.1,43,29.99,10.0,WNW,17.3,21.9,N/A,,Clear,290,2013-08-05 14:54:00
11:54 AM,66.0,43.0,43,29.98,10.0,NNW,13.8,26.5,N/A,,Clear,340,2013-08-05 15:54:00
12:54 PM,68.0,44.1,42,29.98,10.0,WNW,11.5,18.4,N/A,,Clear,300,2013-08-05 16:54:00
1:54 PM,70.0,43.0,38,29.97,10.0,NW,13.8,24.2,N/A,,Clear,310,2013-08-05 17:54:00
2:54 PM,72.0,44.1,37,29.96,10.0,WNW,9.2,21.9,N/A,,Clear,300,2013-08-05 18:54:00
3:54 PM,72.0,44.1,37,29.95,10.0,NW,10.4,17.3,N/A,,Clear,310,2013-08-05 19:54:00
4:54 PM,71.1,42.1,35,29.95,10.0,NW,5.8,-,N/A,,Clear,310,2013-08-05 20:54:00
5:54 PM,71.1,43.0,36,29.96,10.0,WNW,9.2,-,N/A,,Clear,300,2013-08-05 21:54:00
6:54 PM,69.1,45.0,42,29.97,10.0,WNW,5.8,-,N/A,,Clear,300,2013-08-05 22:54:00
7:54 PM,64.0,48.0,56,29.99,10.0,WSW,4.6,-,N/A,,Clear,250,2013-08-05 23:54:00
8:54 PM,59.0,50.0,72,30.01,10.0,SW,4.6,-,N/A,,Clear,230,2013-08-06 00:54:00
9:54 PM,55.9,48.9,77,30.02,10.0,Calm,Calm,-,N/A,,Clear,0,2013-08-06 01:54:00
10:54 PM,53.1,48.9,86,30.02,10.0,Calm,Calm,-,N/A,,Clear,0,2013-08-06 02:54:00
11:54 PM,51.1,48.0,89,30.02,10.0,Calm,Calm,-,N/A,,Clear,0,2013-08-06 03:54:00